www.cux-wetter.de
Wetterdaten: Dienstag, 12.04.2011
Datum Zeit Temp. A. Feuchte A. Luftdruck Regen Wind Richtung Richtung Sonnenschein Solar Taupunkt Windchill Windben
12.04.2011 00:01 10,3 C 78 % 1010,5 hPa 0,0 l/m 15,7 km/h (3 Bft) W-NW 285 0 min 0 W/m 6,6 C 5,2 C 15,7 km/h (3 Bft)
12.04.2011 00:06 10,3 C 79 % 1010,5 hPa 0,0 l/m 16,9 km/h (3 Bft) W-NW 295 0 min 0 W/m 6,8 C 4,7 C 16,9 km/h (3 Bft)
12.04.2011 00:11 10,2 C 79 % 1010,5 hPa 0,0 l/m 17,5 km/h (3 Bft) W-NW 295 0 min 0 W/m 6,7 C 4,4 C 17,5 km/h (3 Bft)
12.04.2011 00:16 10,2 C 79 % 1010,5 hPa 0,0 l/m 11,7 km/h (2 Bft) W 280 0 min 0 W/m 6,7 C 6,9 C 11,7 km/h (2 Bft)
12.04.2011 00:21 10,2 C 80 % 1010,5 hPa 0,0 l/m 15,1 km/h (3 Bft) W-NW 295 0 min 0 W/m 6,9 C 5,3 C 15,1 km/h (3 Bft)
12.04.2011 00:26 10,2 C 80 % 1010,5 hPa 0,0 l/m 19,5 km/h (3 Bft) W-NW 285 0 min 0 W/m 6,9 C 3,7 C 19,5 km/h (3 Bft)
12.04.2011 00:31 10,1 C 81 % 1010,5 hPa 0,0 l/m 17,5 km/h (3 Bft) W 275 0 min 0 W/m 7,0 C 4,3 C 17,5 km/h (3 Bft)
12.04.2011 00:36 10,1 C 81 % 1010,5 hPa 0,0 l/m 17,6 km/h (3 Bft) W 275 0 min 0 W/m 7,0 C 4,2 C 17,6 km/h (3 Bft)
12.04.2011 00:41 10,0 C 81 % 1010,5 hPa 0,0 l/m 13,0 km/h (3 Bft) W-NW 290 0 min 0 W/m 6,9 C 6,0 C 13,0 km/h (3 Bft)
12.04.2011 00:46 10,1 C 82 % 1010,5 hPa 0,0 l/m 15,5 km/h (3 Bft) W 270 0 min 0 W/m 7,2 C 5,0 C 15,5 km/h (3 Bft)
12.04.2011 00:51 10,0 C 81 % 1010,5 hPa 0,0 l/m 16,7 km/h (3 Bft) W 280 0 min 0 W/m 6,9 C 4,5 C 16,7 km/h (3 Bft)
12.04.2011 00:56 10,0 C 82 % 1010,5 hPa 0,0 l/m 15,0 km/h (3 Bft) W-NW 285 0 min 0 W/m 7,1 C 5,1 C 15,0 km/h (3 Bft)
12.04.2011 01:01 10,0 C 82 % 1010,5 hPa 0,0 l/m 13,6 km/h (3 Bft) W-NW 285 0 min 0 W/m 7,1 C 5,7 C 13,6 km/h (3 Bft)
12.04.2011 01:06 10,0 C 82 % 1010,5 hPa 0,0 l/m 15,1 km/h (3 Bft) W 275 0 min 0 W/m 7,1 C 5,1 C 15,1 km/h (3 Bft)
12.04.2011 01:11 9,9 C 83 % 1010,5 hPa 0,0 l/m 18,5 km/h (3 Bft) W 280 0 min 0 W/m 7,2 C 3,7 C 18,5 km/h (3 Bft)
12.04.2011 01:16 9,9 C 84 % 1010,5 hPa 0,0 l/m 20,2 km/h (4 Bft) W-NW 300 0 min 0 W/m 7,3 C 3,1 C 20,2 km/h (4 Bft)
12.04.2011 01:21 9,8 C 84 % 1010,5 hPa 0,0 l/m 24,2 km/h (4 Bft) W-NW 295 0 min 0 W/m 7,2 C 1,8 C 24,2 km/h (4 Bft)
12.04.2011 01:26 9,8 C 84 % 1010,5 hPa 0,0 l/m 30,2 km/h (5 Bft) W-NW 295 0 min 0 W/m 7,2 C 0,3 C 30,2 km/h (5 Bft)
12.04.2011 01:31 9,7 C 85 % 1010,5 hPa 0,0 l/m 28,0 km/h (5 Bft) W-NW 300 0 min 0 W/m 7,3 C 0,7 C 28,0 km/h (5 Bft)
12.04.2011 01:36 9,7 C 85 % 1010,5 hPa 0,0 l/m 22,6 km/h (4 Bft) NW 315 0 min 0 W/m 7,3 C 2,1 C 22,6 km/h (4 Bft)
12.04.2011 01:41 9,7 C 85 % 1010,5 hPa 0,0 l/m 26,6 km/h (4 Bft) W-NW 300 0 min 0 W/m 7,3 C 1,0 C 26,6 km/h (4 Bft)
12.04.2011 01:46 9,6 C 85 % 1009,5 hPa 0,0 l/m 21,6 km/h (4 Bft) NW 305 0 min 0 W/m 7,2 C 2,3 C 21,6 km/h (4 Bft)
12.04.2011 01:51 9,6 C 85 % 1009,5 hPa 0,0 l/m 19,8 km/h (3 Bft) W-NW 295 0 min 0 W/m 7,2 C 2,8 C 19,8 km/h (3 Bft)
12.04.2011 01:56 9,6 C 85 % 1009,5 hPa 0,0 l/m 19,0 km/h (3 Bft) W-NW 300 0 min 0 W/m 7,2 C 3,1 C 19,0 km/h (3 Bft)
12.04.2011 02:01 9,6 C 86 % 1009,5 hPa 0,0 l/m 21,8 km/h (4 Bft) W-NW 290 0 min 0 W/m 7,4 C 2,2 C 21,8 km/h (4 Bft)
12.04.2011 02:06 9,5 C 86 % 1009,5 hPa 0,0 l/m 23,6 km/h (4 Bft) NW 310 0 min 0 W/m 7,3 C 1,5 C 23,6 km/h (4 Bft)
12.04.2011 02:11 9,5 C 86 % 1009,5 hPa 0,0 l/m 21,6 km/h (4 Bft) W-NW 300 0 min 0 W/m 7,3 C 2,1 C 21,6 km/h (4 Bft)
12.04.2011 02:16 9,5 C 87 % 1009,5 hPa 0,0 l/m 22,6 km/h (4 Bft) NW 310 0 min 0 W/m 7,4 C 1,8 C 22,6 km/h (4 Bft)
12.04.2011 02:21 9,4 C 87 % 1009,5 hPa 0,0 l/m 24,2 km/h (4 Bft) NW 305 0 min 0 W/m 7,3 C 1,2 C 24,2 km/h (4 Bft)
12.04.2011 02:26 9,4 C 87 % 1009,5 hPa 0,0 l/m 24,2 km/h (4 Bft) NW 305 0 min 0 W/m 7,3 C 1,2 C 24,2 km/h (4 Bft)
12.04.2011 02:31 9,4 C 87 % 1009,5 hPa 0,0 l/m 20,5 km/h (4 Bft) NW 315 0 min 0 W/m 7,3 C 2,3 C 20,5 km/h (4 Bft)
12.04.2011 02:36 9,3 C 88 % 1009,5 hPa 0,0 l/m 32,4 km/h (5 Bft) NW 315 0 min 0 W/m 7,4 C -0,8 C 32,4 km/h (5 Bft)
12.04.2011 02:41 9,3 C 88 % 1009,5 hPa 0,0 l/m 26,3 km/h (4 Bft) NW 305 0 min 0 W/m 7,4 C 0,5 C 26,3 km/h (4 Bft)
12.04.2011 02:46 9,3 C 88 % 1009,5 hPa 0,0 l/m 28,3 km/h (5 Bft) NW 315 0 min 0 W/m 7,4 C 0,1 C 28,3 km/h (5 Bft)
12.04.2011 02:51 9,2 C 89 % 1009,5 hPa 0,0 l/m 27,3 km/h (5 Bft) NW 315 0 min 0 W/m 7,5 C 0,2 C 27,3 km/h (5 Bft)
12.04.2011 02:56 9,2 C 90 % 1009,5 hPa 0,0 l/m 32,6 km/h (5 Bft) NW 305 0 min 0 W/m 7,6 C -1,0 C 32,6 km/h (5 Bft)
12.04.2011 03:01 9,2 C 90 % 1009,5 hPa 0,0 l/m 27,0 km/h (5 Bft) NW 310 0 min 0 W/m 7,6 C 0,2 C 27,0 km/h (5 Bft)
12.04.2011 03:06 9,1 C 90 % 1009,5 hPa 0,3 l/m 26,7 km/h (4 Bft) W-NW 295 0 min 0 W/m 7,5 C 0,2 C 26,7 km/h (4 Bft)
12.04.2011 03:11 8,9 C 90 % 1009,5 hPa 0,3 l/m 32,1 km/h (5 Bft) NW 305 0 min 0 W/m 7,4 C -1,3 C 32,1 km/h (5 Bft)
12.04.2011 03:16 8,9 C 90 % 1009,5 hPa 0,0 l/m 34,4 km/h (5 Bft) NW 320 0 min 0 W/m 7,4 C -1,8 C 34,4 km/h (5 Bft)
12.04.2011 03:21 8,8 C 90 % 1009,5 hPa 0,3 l/m 34,9 km/h (5 Bft) NW 315 0 min 0 W/m 7,3 C -2,0 C 34,9 km/h (5 Bft)
12.04.2011 03:26 8,8 C 91 % 1009,5 hPa 0,0 l/m 36,7 km/h (5 Bft) NW 315 0 min 0 W/m 7,4 C -2,3 C 36,7 km/h (5 Bft)
12.04.2011 03:31 8,8 C 91 % 1009,5 hPa 0,0 l/m 29,5 km/h (5 Bft) N-NW 340 0 min 0 W/m 7,4 C -0,9 C 29,5 km/h (5 Bft)
12.04.2011 03:36 8,8 C 91 % 1009,5 hPa 0,0 l/m 32,8 km/h (5 Bft) N-NW 330 0 min 0 W/m 7,4 C -1,6 C 32,8 km/h (5 Bft)
12.04.2011 03:41 8,8 C 91 % 1009,5 hPa 0,0 l/m 37,6 km/h (5 Bft) N-NW 330 0 min 0 W/m 7,4 C -2,5 C 37,6 km/h (5 Bft)
12.04.2011 03:46 8,9 C 91 % 1009,5 hPa 0,0 l/m 24,3 km/h (4 Bft) NW 315 0 min 0 W/m 7,5 C 0,5 C 24,3 km/h (4 Bft)
12.04.2011 03:51 9,0 C 91 % 1009,5 hPa 0,3 l/m 25,6 km/h (4 Bft) N-NW 330 0 min 0 W/m 7,6 C 0,3 C 25,6 km/h (4 Bft)
12.04.2011 03:56 9,1 C 90 % 1009,5 hPa 0,0 l/m 25,2 km/h (4 Bft) N-NW 335 0 min 0 W/m 7,5 C 0,6 C 25,2 km/h (4 Bft)
12.04.2011 04:01 9,1 C 90 % 1009,5 hPa 0,0 l/m 24,3 km/h (4 Bft) N-NW 345 0 min 0 W/m 7,5 C 0,8 C 24,3 km/h (4 Bft)
12.04.2011 04:06 9,2 C 90 % 1009,5 hPa 0,0 l/m 34,5 km/h (5 Bft) NW 325 0 min 0 W/m 7,6 C -1,4 C 34,5 km/h (5 Bft)
12.04.2011 04:11 9,1 C 89 % 1009,5 hPa 0,0 l/m 36,8 km/h (5 Bft) NW 315 0 min 0 W/m 7,4 C -1,9 C 36,8 km/h (5 Bft)
12.04.2011 04:16 8,8 C 89 % 1009,5 hPa 0,0 l/m 38,2 km/h (6 Bft) NW 305 0 min 0 W/m 7,1 C -2,6 C 38,2 km/h (6 Bft)
12.04.2011 04:21 8,8 C 90 % 1009,5 hPa 0,0 l/m 38,9 km/h (6 Bft) NW 320 0 min 0 W/m 7,3 C -2,7 C 38,9 km/h (6 Bft)
12.04.2011 04:26 8,5 C 90 % 1009,5 hPa 0,0 l/m 40,1 km/h (6 Bft) NW 315 0 min 0 W/m 7,0 C -3,3 C 40,1 km/h (6 Bft)
12.04.2011 04:31 8,4 C 90 % 1009,5 hPa 0,0 l/m 29,8 km/h (5 Bft) NW 320 0 min 0 W/m 6,9 C -1,5 C 29,8 km/h (5 Bft)
12.04.2011 04:36 8,4 C 91 % 1009,5 hPa 0,0 l/m 34,4 km/h (5 Bft) N-NW 330 0 min 0 W/m 7,0 C -2,5 C 34,4 km/h (5 Bft)
12.04.2011 04:41 8,3 C 91 % 1009,5 hPa 0,0 l/m 31,1 km/h (5 Bft) N-NW 330 0 min 0 W/m 6,9 C -2,0 C 31,1 km/h (5 Bft)
12.04.2011 04:46 8,2 C 91 % 1009,5 hPa 0,0 l/m 27,4 km/h (5 Bft) N-NW 330 0 min 0 W/m 6,8 C -1,2 C 27,4 km/h (5 Bft)
12.04.2011 04:51 8,2 C 91 % 1009,5 hPa 0,3 l/m 33,9 km/h (5 Bft) N 350 0 min 0 W/m 6,8 C -2,7 C 33,9 km/h (5 Bft)
12.04.2011 04:56 8,2 C 91 % 1009,5 hPa 0,0 l/m 32,6 km/h (5 Bft) N 360 0 min 0 W/m 6,8 C -2,4 C 32,6 km/h (5 Bft)
12.04.2011 05:01 8,1 C 91 % 1009,5 hPa 0,0 l/m 24,3 km/h (4 Bft) N 5 0 min 0 W/m 6,7 C -0,5 C 24,3 km/h (4 Bft)
12.04.2011 05:06 8,1 C 91 % 1008,5 hPa 0,0 l/m 33,3 km/h (5 Bft) N-NW 335 0 min 0 W/m 6,7 C -2,7 C 33,3 km/h (5 Bft)
12.04.2011 05:11 8,1 C 91 % 1008,5 hPa 0,0 l/m 25,2 km/h (4 Bft) N-NO 15 0 min 0 W/m 6,7 C -0,8 C 25,2 km/h (4 Bft)
12.04.2011 05:16 8,1 C 91 % 1009,5 hPa 0,0 l/m 28,6 km/h (5 Bft) N-NO 25 0 min 0 W/m 6,7 C -1,7 C 28,6 km/h (5 Bft)
12.04.2011 05:21 8,1 C 91 % 1009,5 hPa 0,0 l/m 33,9 km/h (5 Bft) N 350 0 min 0 W/m 6,7 C -2,8 C 33,9 km/h (5 Bft)
12.04.2011 05:26 8,1 C 91 % 1009,5 hPa 0,0 l/m 35,1 km/h (5 Bft) N-NW 345 0 min 0 W/m 6,7 C -3,1 C 35,1 km/h (5 Bft)
12.04.2011 05:31 8,0 C 91 % 1009,5 hPa 0,0 l/m 30,6 km/h (5 Bft) N 350 0 min 0 W/m 6,6 C -2,3 C 30,6 km/h (5 Bft)
12.04.2011 05:36 8,0 C 91 % 1009,5 hPa 0,0 l/m 29,3 km/h (5 Bft) N-NW 345 0 min 0 W/m 6,6 C -2,0 C 29,3 km/h (5 Bft)
12.04.2011 05:41 7,9 C 91 % 1010,5 hPa 0,3 l/m 30,8 km/h (5 Bft) N-NW 340 0 min 0 W/m 6,5 C -2,5 C 30,8 km/h (5 Bft)
12.04.2011 05:46 7,9 C 91 % 1010,5 hPa 0,0 l/m 33,1 km/h (5 Bft) N-NW 340 0 min 0 W/m 6,5 C -3,0 C 33,1 km/h (5 Bft)
12.04.2011 05:51 7,8 C 91 % 1010,5 hPa 0,3 l/m 36,0 km/h (5 Bft) N 360 0 min 0 W/m 6,4 C -3,7 C 36,0 km/h (5 Bft)
12.04.2011 05:56 7,8 C 91 % 1010,5 hPa 0,3 l/m 31,5 km/h (5 Bft) N 350 0 min 0 W/m 6,4 C -2,8 C 31,5 km/h (5 Bft)
12.04.2011 06:01 7,8 C 91 % 1009,5 hPa 0,0 l/m 38,1 km/h (6 Bft) N-NW 340 0 min 0 W/m 6,4 C -4,1 C 38,1 km/h (6 Bft)
12.04.2011 06:06 7,6 C 91 % 1010,5 hPa 0,0 l/m 39,2 km/h (6 Bft) N 355 0 min 0 W/m 6,2 C -4,5 C 39,2 km/h (6 Bft)
12.04.2011 06:11 7,6 C 91 % 1010,5 hPa 0,3 l/m 41,0 km/h (6 Bft) N 5 0 min 0 W/m 6,2 C -4,8 C 41,0 km/h (6 Bft)
12.04.2011 06:16 7,5 C 91 % 1010,5 hPa 0,0 l/m 40,7 km/h (6 Bft) N 355 0 min 0 W/m 6,1 C -4,9 C 40,7 km/h (6 Bft)
12.04.2011 06:21 7,4 C 91 % 1010,5 hPa 0,3 l/m 41,9 km/h (6 Bft) N 360 0 min 0 W/m 6,0 C -5,3 C 41,9 km/h (6 Bft)
12.04.2011 06:26 7,4 C 90 % 1010,5 hPa 0,0 l/m 42,7 km/h (6 Bft) N 5 0 min 0 W/m 5,9 C -5,4 C 42,7 km/h (6 Bft)
12.04.2011 06:31 7,4 C 90 % 1010,5 hPa 0,0 l/m 38,3 km/h (6 Bft) N-NO 20 0 min 0 W/m 5,9 C -4,7 C 38,3 km/h (6 Bft)
12.04.2011 06:36 7,3 C 90 % 1010,5 hPa 0,0 l/m 42,0 km/h (6 Bft) N 360 0 min 0 W/m 5,8 C -5,4 C 42,0 km/h (6 Bft)
12.04.2011 06:41 7,3 C 90 % 1010,5 hPa 0,0 l/m 51,4 km/h (7 Bft) N-NO 20 0 min 0 W/m 5,8 C -6,6 C 51,4 km/h (7 Bft)
12.04.2011 06:46 7,4 C 90 % 1010,5 hPa 0,0 l/m 46,0 km/h (6 Bft) N-NW 330 0 min 0 W/m 5,9 C -5,8 C 46,0 km/h (6 Bft)
12.04.2011 06:51 7,3 C 89 % 1010,5 hPa 0,0 l/m 41,7 km/h (6 Bft) N 350 0 min 0 W/m 5,6 C -5,4 C 41,7 km/h (6 Bft)
12.04.2011 06:56 7,3 C 89 % 1010,5 hPa 0,0 l/m 42,7 km/h (6 Bft) N-NO 15 0 min 0 W/m 5,6 C -5,5 C 42,7 km/h (6 Bft)
12.04.2011 07:01 7,3 C 89 % 1010,5 hPa 0,0 l/m 36,0 km/h (5 Bft) N 350 0 min 0 W/m 5,6 C -4,4 C 36,0 km/h (5 Bft)
12.04.2011 07:06 7,3 C 89 % 1010,5 hPa 0,0 l/m 40,2 km/h (6 Bft) N 5 0 min 0 W/m 5,6 C -5,1 C 40,2 km/h (6 Bft)
12.04.2011 07:11 7,4 C 89 % 1010,5 hPa 0,0 l/m 37,5 km/h (5 Bft) N 355 0 min 0 W/m 5,7 C -4,5 C 37,5 km/h (5 Bft)
12.04.2011 07:16 7,4 C 89 % 1011,5 hPa 0,0 l/m 36,6 km/h (5 Bft) N 355 0 min 0 W/m 5,7 C -4,4 C 36,6 km/h (5 Bft)
12.04.2011 07:21 7,5 C 89 % 1011,5 hPa 0,0 l/m 43,2 km/h (6 Bft) N 360 0 min 0 W/m 5,8 C -5,3 C 43,2 km/h (6 Bft)
12.04.2011 07:26 7,5 C 88 % 1011,5 hPa 0,0 l/m 37,9 km/h (6 Bft) N-NW 345 0 min 0 W/m 5,6 C -4,5 C 37,9 km/h (6 Bft)
12.04.2011 07:31 7,5 C 88 % 1011,5 hPa 0,0 l/m 40,2 km/h (6 Bft) N 350 0 min 0 W/m 5,6 C -4,8 C 40,2 km/h (6 Bft)
12.04.2011 07:36 7,6 C 88 % 1011,5 hPa 0,0 l/m 36,5 km/h (5 Bft) N 5 0 min 0 W/m 5,7 C -4,1 C 36,5 km/h (5 Bft)
12.04.2011 07:41 7,5 C 88 % 1011,5 hPa 0,0 l/m 34,9 km/h (5 Bft) N-NW 345 0 min 0 W/m 5,6 C -3,9 C 34,9 km/h (5 Bft)
12.04.2011 07:46 7,5 C 88 % 1011,5 hPa 0,0 l/m 33,8 km/h (5 Bft) N-NW 340 0 min 0 W/m 5,6 C -3,7 C 33,8 km/h (5 Bft)
12.04.2011 07:51 7,6 C 88 % 1011,5 hPa 0,0 l/m 31,1 km/h (5 Bft) N-NW 335 0 min 0 W/m 5,7 C -3,0 C 31,1 km/h (5 Bft)
12.04.2011 07:56 7,6 C 88 % 1011,5 hPa 0,0 l/m 47,4 km/h (6 Bft) N 350 0 min 0 W/m 5,7 C -5,7 C 47,4 km/h (6 Bft)
12.04.2011 08:01 7,5 C 87 % 1011,5 hPa 0,0 l/m 46,6 km/h (6 Bft) N 10 0 min 0 W/m 5,5 C -5,8 C 46,6 km/h (6 Bft)
12.04.2011 08:06 7,5 C 87 % 1011,5 hPa 0,0 l/m 43,5 km/h (6 Bft) N 360 0 min 0 W/m 5,5 C -5,3 C 43,5 km/h (6 Bft)
12.04.2011 08:11 7,6 C 87 % 1011,5 hPa 0,0 l/m 38,4 km/h (6 Bft) N 350 0 min 0 W/m 5,6 C -4,4 C 38,4 km/h (6 Bft)
12.04.2011 08:16 7,4 C 88 % 1011,5 hPa 0,3 l/m 36,4 km/h (5 Bft) N 355 0 min 0 W/m 5,5 C -4,3 C 36,4 km/h (5 Bft)
12.04.2011 08:21 7,4 C 88 % 1011,5 hPa 0,0 l/m 40,5 km/h (6 Bft) N 10 0 min 0 W/m 5,5 C -5,0 C 40,5 km/h (6 Bft)
12.04.2011 08:26 7,5 C 89 % 1011,5 hPa 0,3 l/m 27,2 km/h (5 Bft) N 360 0 min 0 W/m 5,8 C -2,2 C 27,2 km/h (5 Bft)
12.04.2011 08:31 7,5 C 89 % 1011,5 hPa 0,0 l/m 42,0 km/h (6 Bft) N-NW 340 0 min 0 W/m 5,8 C -5,1 C 42,0 km/h (6 Bft)
12.04.2011 08:37 7,6 C 89 % 1011,5 hPa 0,0 l/m 33,1 km/h (5 Bft) N-NW 340 0 min 0 W/m 5,9 C -3,4 C 33,1 km/h (5 Bft)
12.04.2011 08:41 7,6 C 89 % 1012,5 hPa 0,0 l/m 35,9 km/h (5 Bft) N-NW 335 0 min 0 W/m 5,9 C -4,0 C 35,9 km/h (5 Bft)
12.04.2011 08:46 7,6 C 88 % 1012,5 hPa 0,0 l/m 36,3 km/h (5 Bft) N-NW 340 0 min 0 W/m 5,7 C -4,0 C 36,3 km/h (5 Bft)
12.04.2011 08:51 7,7 C 88 % 1012,5 hPa 0,0 l/m 42,0 km/h (6 Bft) N 350 0 min 0 W/m 5,8 C -4,8 C 42,0 km/h (6 Bft)
12.04.2011 08:56 7,7 C 85 % 1012,5 hPa 0,0 l/m 41,2 km/h (6 Bft) N 10 0 min 0 W/m 5,3 C -4,7 C 41,2 km/h (6 Bft)
12.04.2011 09:01 7,7 C 85 % 1012,5 hPa 0,0 l/m 42,4 km/h (6 Bft) N 5 0 min 0 W/m 5,3 C -4,9 C 42,4 km/h (6 Bft)
12.04.2011 09:06 7,8 C 84 % 1012,5 hPa 0,0 l/m 35,7 km/h (5 Bft) N 5 0 min 0 W/m 5,3 C -3,6 C 35,7 km/h (5 Bft)
12.04.2011 09:11 7,8 C 84 % 1012,5 hPa 0,0 l/m 44,3 km/h (6 Bft) N 5 0 min 0 W/m 5,3 C -5,0 C 44,3 km/h (6 Bft)
12.04.2011 09:16 7,8 C 82 % 1012,5 hPa 0,0 l/m 46,8 km/h (6 Bft) N 10 0 min 0 W/m 4,9 C -5,3 C 46,8 km/h (6 Bft)
12.04.2011 09:21 7,8 C 81 % 1012,5 hPa 0,0 l/m 42,1 km/h (6 Bft) N 5 0 min 0 W/m 4,7 C -4,7 C 42,1 km/h (6 Bft)
12.04.2011 09:26 7,9 C 81 % 1012,5 hPa 0,0 l/m 41,2 km/h (6 Bft) N 5 0 min 0 W/m 4,8 C -4,4 C 41,2 km/h (6 Bft)
12.04.2011 09:31 7,9 C 82 % 1013,5 hPa 0,0 l/m 42,4 km/h (6 Bft) N 355 0 min 0 W/m 5,0 C -4,6 C 42,4 km/h (6 Bft)
12.04.2011 09:36 8,0 C 81 % 1013,5 hPa 0,0 l/m 29,5 km/h (5 Bft) N-NW 330 0 min 0 W/m 4,9 C -2,0 C 29,5 km/h (5 Bft)
12.04.2011 09:41 7,8 C 82 % 1013,5 hPa 0,0 l/m 41,3 km/h (6 Bft) N 355 0 min 0 W/m 4,9 C -4,6 C 41,3 km/h (6 Bft)
12.04.2011 09:46 7,8 C 81 % 1013,5 hPa 0,0 l/m 37,4 km/h (5 Bft) N-NW 340 0 min 0 W/m 4,7 C -3,9 C 37,4 km/h (5 Bft)
12.04.2011 09:51 7,8 C 82 % 1013,5 hPa 0,0 l/m 37,7 km/h (5 Bft) N-NW 340 0 min 0 W/m 4,9 C -4,0 C 37,7 km/h (5 Bft)
12.04.2011 09:56 7,9 C 81 % 1013,5 hPa 0,0 l/m 33,6 km/h (5 Bft) N 350 0 min 0 W/m 4,8 C -3,1 C 33,6 km/h (5 Bft)
12.04.2011 10:01 8,0 C 81 % 1013,5 hPa 0,0 l/m 39,3 km/h (6 Bft) N 360 0 min 0 W/m 4,9 C -4,0 C 39,3 km/h (6 Bft)
12.04.2011 10:06 8,0 C 81 % 1013,5 hPa 0,0 l/m 32,2 km/h (5 Bft) N 5 0 min 0 W/m 4,9 C -2,6 C 32,2 km/h (5 Bft)
12.04.2011 10:11 8,1 C 80 % 1013,5 hPa 0,0 l/m 45,1 km/h (6 Bft) N 350 0 min 0 W/m 4,9 C -4,7 C 45,1 km/h (6 Bft)
12.04.2011 10:16 8,1 C 80 % 1013,5 hPa 0,0 l/m 37,5 km/h (5 Bft) N 350 0 min 0 W/m 4,9 C -3,5 C 37,5 km/h (5 Bft)
12.04.2011 10:21 8,2 C 79 % 1013,5 hPa 0,0 l/m 43,6 km/h (6 Bft) N-NW 345 0 min 0 W/m 4,8 C -4,3 C 43,6 km/h (6 Bft)
12.04.2011 10:26 8,2 C 78 % 1013,5 hPa 0,0 l/m 40,5 km/h (6 Bft) N 355 0 min 0 W/m 4,6 C -3,9 C 40,5 km/h (6 Bft)
12.04.2011 10:31 8,3 C 77 % 1013,5 hPa 0,0 l/m 46,3 km/h (6 Bft) N-NO 20 0 min 0 W/m 4,5 C -4,5 C 46,3 km/h (6 Bft)
12.04.2011 10:36 8,4 C 78 % 1014,5 hPa 0,0 l/m 46,0 km/h (6 Bft) N 5 0 min 0 W/m 4,8 C -4,3 C 46,0 km/h (6 Bft)
12.04.2011 10:41 8,4 C 77 % 1014,5 hPa 0,0 l/m 35,1 km/h (5 Bft) N-NO 20 0 min 0 W/m 4,6 C -2,6 C 35,1 km/h (5 Bft)
12.04.2011 10:46 8,4 C 75 % 1014,5 hPa 0,0 l/m 41,2 km/h (6 Bft) N 355 0 min 0 W/m 4,2 C -3,7 C 41,2 km/h (6 Bft)
12.04.2011 10:51 8,5 C 76 % 1014,5 hPa 0,0 l/m 42,6 km/h (6 Bft) N 10 0 min 0 W/m 4,5 C -3,7 C 42,6 km/h (6 Bft)
12.04.2011 10:56 8,6 C 76 % 1014,5 hPa 0,0 l/m 43,5 km/h (6 Bft) N 355 0 min 0 W/m 4,6 C -3,7 C 43,5 km/h (6 Bft)
12.04.2011 11:01 8,6 C 75 % 1014,5 hPa 0,0 l/m 35,8 km/h (5 Bft) N 360 0 min 0 W/m 4,4 C -2,5 C 35,8 km/h (5 Bft)
12.04.2011 11:06 8,6 C 75 % 1014,5 hPa 0,0 l/m 39,7 km/h (6 Bft) N 5 0 min 0 W/m 4,4 C -3,1 C 39,7 km/h (6 Bft)
12.04.2011 11:11 8,6 C 74 % 1014,5 hPa 0,0 l/m 41,3 km/h (6 Bft) N 355 0 min 0 W/m 4,2 C -3,4 C 41,3 km/h (6 Bft)
12.04.2011 11:16 8,7 C 75 % 1014,5 hPa 0,0 l/m 40,4 km/h (6 Bft) N 355 0 min 0 W/m 4,5 C -3,1 C 40,4 km/h (6 Bft)
12.04.2011 11:21 8,8 C 73 % 1014,5 hPa 0,0 l/m 32,2 km/h (5 Bft) N 360 0 min 0 W/m 4,2 C -1,5 C 32,2 km/h (5 Bft)
12.04.2011 11:26 9,0 C 73 % 1014,5 hPa 0,0 l/m 40,6 km/h (6 Bft) N-NW 330 0 min 0 W/m 4,4 C -2,7 C 40,6 km/h (6 Bft)
12.04.2011 11:31 9,0 C 73 % 1014,5 hPa 0,0 l/m 40,2 km/h (6 Bft) N 350 0 min 0 W/m 4,4 C -2,6 C 40,2 km/h (6 Bft)
12.04.2011 11:36 8,9 C 73 % 1014,5 hPa 0,0 l/m 43,8 km/h (6 Bft) N-NW 335 0 min 0 W/m 4,3 C -3,3 C 43,8 km/h (6 Bft)
12.04.2011 11:41 9,0 C 73 % 1014,5 hPa 0,0 l/m 43,0 km/h (6 Bft) N 350 0 min 0 W/m 4,4 C -3,0 C 43,0 km/h (6 Bft)
12.04.2011 11:46 9,0 C 75 % 1014,5 hPa 0,0 l/m 33,4 km/h (5 Bft) N-NW 335 0 min 0 W/m 4,8 C -1,5 C 33,4 km/h (5 Bft)
12.04.2011 11:51 9,1 C 73 % 1015,5 hPa 0,0 l/m 46,5 km/h (6 Bft) N-NW 340 0 min 0 W/m 4,5 C -3,3 C 46,5 km/h (6 Bft)
12.04.2011 11:56 9,2 C 73 % 1015,5 hPa 0,0 l/m 42,1 km/h (6 Bft) N-NW 345 0 min 0 W/m 4,6 C -2,6 C 42,1 km/h (6 Bft)
12.04.2011 12:01 9,3 C 74 % 1015,5 hPa 0,0 l/m 45,1 km/h (6 Bft) NW 325 0 min 0 W/m 4,9 C -2,8 C 45,1 km/h (6 Bft)
12.04.2011 12:06 9,2 C 73 % 1015,5 hPa 0,0 l/m 44,2 km/h (6 Bft) NW 325 0 min 0 W/m 4,6 C -2,9 C 44,2 km/h (6 Bft)
12.04.2011 12:11 9,3 C 73 % 1015,5 hPa 0,0 l/m 44,4 km/h (6 Bft) N 350 0 min 0 W/m 4,7 C -2,8 C 44,4 km/h (6 Bft)
12.04.2011 12:16 9,3 C 73 % 1015,5 hPa 0,0 l/m 42,5 km/h (6 Bft) N-NW 335 0 min 0 W/m 4,7 C -2,5 C 42,5 km/h (6 Bft)
12.04.2011 12:21 9,2 C 72 % 1015,5 hPa 0,0 l/m 45,6 km/h (6 Bft) N-NW 330 0 min 0 W/m 4,4 C -3,1 C 45,6 km/h (6 Bft)
12.04.2011 12:26 9,3 C 73 % 1015,5 hPa 0,0 l/m 49,6 km/h (7 Bft) N-NW 340 0 min 0 W/m 4,7 C -3,3 C 49,6 km/h (7 Bft)
12.04.2011 12:31 9,4 C 72 % 1015,5 hPa 0,0 l/m 42,1 km/h (6 Bft) N-NW 340 0 min 0 W/m 4,6 C -2,3 C 42,1 km/h (6 Bft)
12.04.2011 12:36 9,5 C 74 % 1015,5 hPa 0,0 l/m 45,4 km/h (6 Bft) N-NW 345 0 min 0 W/m 5,1 C -2,6 C 45,4 km/h (6 Bft)
12.04.2011 12:41 9,5 C 72 % 1015,5 hPa 0,0 l/m 38,9 km/h (6 Bft) N-NW 330 0 min 0 W/m 4,7 C -1,7 C 38,9 km/h (6 Bft)
12.04.2011 12:46 9,6 C 72 % 1015,5 hPa 0,0 l/m 42,2 km/h (6 Bft) N-NW 330 0 min 0 W/m 4,8 C -2,0 C 42,2 km/h (6 Bft)
12.04.2011 12:51 9,5 C 72 % 1015,5 hPa 0,0 l/m 45,6 km/h (6 Bft) N-NW 340 0 min 0 W/m 4,7 C -2,6 C 45,6 km/h (6 Bft)
12.04.2011 12:56 9,4 C 70 % 1015,5 hPa 0,0 l/m 47,2 km/h (6 Bft) NW 325 0 min 0 W/m 4,2 C -2,9 C 47,2 km/h (6 Bft)
12.04.2011 13:01 9,3 C 72 % 1015,5 hPa 0,0 l/m 36,8 km/h (5 Bft) N-NW 330 0 min 0 W/m 4,5 C -1,6 C 36,8 km/h (5 Bft)
12.04.2011 13:06 9,3 C 72 % 1015,5 hPa 0,0 l/m 36,1 km/h (5 Bft) N 350 0 min 0 W/m 4,5 C -1,5 C 36,1 km/h (5 Bft)
12.04.2011 13:11 9,4 C 72 % 1015,5 hPa 0,0 l/m 43,7 km/h (6 Bft) NW 320 0 min 0 W/m 4,6 C -2,5 C 43,7 km/h (6 Bft)
12.04.2011 13:16 9,3 C 71 % 1015,5 hPa 0,0 l/m 40,5 km/h (6 Bft) N-NW 340 0 min 0 W/m 4,3 C -2,2 C 40,5 km/h (6 Bft)
12.04.2011 13:21 9,3 C 70 % 1015,5 hPa 0,0 l/m 42,3 km/h (6 Bft) N-NW 345 0 min 0 W/m 4,1 C -2,5 C 42,3 km/h (6 Bft)
12.04.2011 13:26 9,3 C 72 % 1015,5 hPa 0,0 l/m 41,3 km/h (6 Bft) N-NW 345 0 min 0 W/m 4,5 C -2,3 C 41,3 km/h (6 Bft)
12.04.2011 13:31 9,4 C 71 % 1015,5 hPa 0,0 l/m 43,2 km/h (6 Bft) N-NW 340 0 min 0 W/m 4,4 C -2,4 C 43,2 km/h (6 Bft)
12.04.2011 13:36 9,4 C 70 % 1015,5 hPa 0,0 l/m 46,2 km/h (6 Bft) N-NW 335 0 min 0 W/m 4,2 C -2,8 C 46,2 km/h (6 Bft)
12.04.2011 13:41 9,4 C 71 % 1015,5 hPa 0,0 l/m 47,1 km/h (6 Bft) N-NW 330 0 min 0 W/m 4,4 C -2,9 C 47,1 km/h (6 Bft)
12.04.2011 13:46 9,4 C 71 % 1016,5 hPa 0,0 l/m 45,3 km/h (6 Bft) N-NW 335 0 min 0 W/m 4,4 C -2,7 C 45,3 km/h (6 Bft)
12.04.2011 13:51 9,5 C 71 % 1016,5 hPa 0,0 l/m 42,5 km/h (6 Bft) N-NW 335 0 min 0 W/m 4,5 C -2,2 C 42,5 km/h (6 Bft)
12.04.2011 13:56 9,5 C 71 % 1016,5 hPa 0,0 l/m 44,7 km/h (6 Bft) N-NW 335 0 min 0 W/m 4,5 C -2,5 C 44,7 km/h (6 Bft)
12.04.2011 14:01 9,6 C 71 % 1016,5 hPa 0,0 l/m 44,7 km/h (6 Bft) N-NW 335 0 min 0 W/m 4,6 C -2,3 C 44,7 km/h (6 Bft)
12.04.2011 14:06 9,5 C 70 % 1016,5 hPa 0,0 l/m 40,5 km/h (6 Bft) N-NW 330 0 min 0 W/m 4,3 C -1,9 C 40,5 km/h (6 Bft)
12.04.2011 14:11 9,5 C 71 % 1016,5 hPa 0,3 l/m 38,8 km/h (6 Bft) N-NW 335 0 min 0 W/m 4,5 C -1,7 C 38,8 km/h (6 Bft)
12.04.2011 14:16 9,5 C 67 % 1016,5 hPa 0,0 l/m 44,4 km/h (6 Bft) N-NW 335 0 min 0 W/m 3,7 C -2,4 C 44,4 km/h (6 Bft)
12.04.2011 14:21 9,5 C 69 % 1016,5 hPa 0,0 l/m 48,6 km/h (6 Bft) N-NW 330 0 min 0 W/m 4,1 C -2,9 C 48,6 km/h (6 Bft)
12.04.2011 14:26 9,6 C 69 % 1016,5 hPa 0,0 l/m 41,9 km/h (6 Bft) N-NW 335 0 min 0 W/m 4,2 C -2,0 C 41,9 km/h (6 Bft)
12.04.2011 14:31 9,6 C 69 % 1016,5 hPa 0,0 l/m 44,7 km/h (6 Bft) N 350 0 min 0 W/m 4,2 C -2,3 C 44,7 km/h (6 Bft)
12.04.2011 14:36 9,6 C 70 % 1016,5 hPa 0,0 l/m 45,7 km/h (6 Bft) NW 320 0 min 0 W/m 4,4 C -2,5 C 45,7 km/h (6 Bft)
12.04.2011 14:41 9,5 C 70 % 1016,5 hPa 0,0 l/m 44,7 km/h (6 Bft) NW 305 0 min 0 W/m 4,3 C -2,5 C 44,7 km/h (6 Bft)
12.04.2011 14:46 9,5 C 69 % 1016,5 hPa 0,0 l/m 47,8 km/h (6 Bft) NW 325 0 min 0 W/m 4,1 C -2,8 C 47,8 km/h (6 Bft)
12.04.2011 14:51 9,4 C 69 % 1016,5 hPa 0,0 l/m 48,3 km/h (6 Bft) N-NW 330 0 min 0 W/m 4,0 C -3,1 C 48,3 km/h (6 Bft)
12.04.2011 14:56 9,4 C 69 % 1016,5 hPa 0,0 l/m 37,5 km/h (5 Bft) N-NW 335 0 min 0 W/m 4,0 C -1,6 C 37,5 km/h (5 Bft)
12.04.2011 15:01 9,6 C 69 % 1016,5 hPa 0,0 l/m 45,0 km/h (6 Bft) NW 325 0 min 0 W/m 4,2 C -2,4 C 45,0 km/h (6 Bft)
12.04.2011 15:06 9,6 C 69 % 1016,5 hPa 0,0 l/m 48,4 km/h (6 Bft) N-NW 335 0 min 0 W/m 4,2 C -2,8 C 48,4 km/h (6 Bft)
12.04.2011 15:11 9,4 C 70 % 1016,5 hPa 0,0 l/m 41,9 km/h (6 Bft) N-NW 335 0 min 0 W/m 4,2 C -2,3 C 41,9 km/h (6 Bft)
12.04.2011 15:16 9,5 C 70 % 1016,5 hPa 0,0 l/m 49,8 km/h (7 Bft) NW 325 0 min 0 W/m 4,3 C -3,1 C 49,8 km/h (7 Bft)
12.04.2011 15:21 9,7 C 70 % 1016,5 hPa 0,0 l/m 48,7 km/h (7 Bft) N-NW 330 0 min 0 W/m 4,5 C -2,6 C 48,7 km/h (7 Bft)
12.04.2011 15:26 9,6 C 69 % 1016,5 hPa 0,0 l/m 42,4 km/h (6 Bft) N-NW 330 0 min 0 W/m 4,2 C -2,0 C 42,4 km/h (6 Bft)
12.04.2011 15:31 9,4 C 71 % 1016,5 hPa 0,0 l/m 41,3 km/h (6 Bft) N-NW 330 0 min 0 W/m 4,4 C -2,2 C 41,3 km/h (6 Bft)
12.04.2011 15:36 9,5 C 71 % 1016,5 hPa 0,0 l/m 42,2 km/h (6 Bft) NW 320 0 min 0 W/m 4,5 C -2,2 C 42,2 km/h (6 Bft)
12.04.2011 15:41 9,5 C 71 % 1016,5 hPa 0,0 l/m 43,9 km/h (6 Bft) NW 325 0 min 0 W/m 4,5 C -2,4 C 43,9 km/h (6 Bft)
12.04.2011 15:46 9,5 C 69 % 1016,5 hPa 0,0 l/m 42,5 km/h (6 Bft) NW 325 0 min 0 W/m 4,1 C -2,2 C 42,5 km/h (6 Bft)
12.04.2011 15:51 9,5 C 70 % 1016,5 hPa 0,0 l/m 40,1 km/h (6 Bft) NW 320 0 min 0 W/m 4,3 C -1,9 C 40,1 km/h (6 Bft)
12.04.2011 15:56 9,3 C 71 % 1016,5 hPa 0,0 l/m 42,8 km/h (6 Bft) N-NW 330 0 min 0 W/m 4,3 C -2,5 C 42,8 km/h (6 Bft)
12.04.2011 16:01 9,3 C 73 % 1016,5 hPa 0,0 l/m 40,5 km/h (6 Bft) NW 325 0 min 0 W/m 4,7 C -2,2 C 40,5 km/h (6 Bft)
12.04.2011 16:06 9,3 C 73 % 1016,5 hPa 0,0 l/m 40,2 km/h (6 Bft) NW 320 0 min 0 W/m 4,7 C -2,2 C 40,2 km/h (6 Bft)
12.04.2011 16:11 9,4 C 73 % 1016,5 hPa 0,0 l/m 48,6 km/h (6 Bft) N-NW 345 0 min 0 W/m 4,8 C -3,1 C 48,6 km/h (6 Bft)
12.04.2011 16:16 9,5 C 72 % 1016,5 hPa 0,0 l/m 37,4 km/h (5 Bft) NW 325 0 min 0 W/m 4,7 C -1,4 C 37,4 km/h (5 Bft)
12.04.2011 16:21 9,3 C 73 % 1016,5 hPa 0,0 l/m 44,0 km/h (6 Bft) NW 325 0 min 0 W/m 4,7 C -2,7 C 44,0 km/h (6 Bft)
12.04.2011 16:26 9,2 C 72 % 1016,5 hPa 0,0 l/m 39,8 km/h (6 Bft) NW 325 0 min 0 W/m 4,4 C -2,3 C 39,8 km/h (6 Bft)
12.04.2011 16:31 9,0 C 74 % 1016,5 hPa 0,0 l/m 41,2 km/h (6 Bft) N-NW 340 0 min 0 W/m 4,6 C -2,8 C 41,2 km/h (6 Bft)
12.04.2011 16:36 8,8 C 74 % 1016,5 hPa 0,0 l/m 43,1 km/h (6 Bft) N-NW 330 0 min 0 W/m 4,4 C -3,3 C 43,1 km/h (6 Bft)
12.04.2011 16:41 8,8 C 74 % 1016,5 hPa 0,0 l/m 36,5 km/h (5 Bft) NW 325 0 min 0 W/m 4,4 C -2,3 C 36,5 km/h (5 Bft)
12.04.2011 16:46 8,7 C 73 % 1016,5 hPa 0,0 l/m 41,8 km/h (6 Bft) N-NW 345 0 min 0 W/m 4,1 C -3,3 C 41,8 km/h (6 Bft)
12.04.2011 16:51 8,6 C 74 % 1016,5 hPa 0,0 l/m 37,8 km/h (5 Bft) N-NW 330 0 min 0 W/m 4,2 C -2,8 C 37,8 km/h (5 Bft)
12.04.2011 16:56 8,6 C 73 % 1016,5 hPa 0,0 l/m 44,6 km/h (6 Bft) NW 325 0 min 0 W/m 4,0 C -3,8 C 44,6 km/h (6 Bft)
12.04.2011 17:01 8,5 C 75 % 1016,5 hPa 0,0 l/m 43,6 km/h (6 Bft) N-NW 330 0 min 0 W/m 4,3 C -3,9 C 43,6 km/h (6 Bft)
12.04.2011 17:06 8,4 C 75 % 1016,5 hPa 0,0 l/m 35,4 km/h (5 Bft) NW 320 0 min 0 W/m 4,2 C -2,7 C 35,4 km/h (5 Bft)
12.04.2011 17:11 8,5 C 75 % 1016,5 hPa 0,0 l/m 41,8 km/h (6 Bft) NW 315 0 min 0 W/m 4,3 C -3,6 C 41,8 km/h (6 Bft)
12.04.2011 17:16 8,4 C 76 % 1016,5 hPa 0,0 l/m 36,0 km/h (5 Bft) N-NW 330 0 min 0 W/m 4,4 C -2,8 C 36,0 km/h (5 Bft)
12.04.2011 17:21 8,4 C 75 % 1016,5 hPa 0,0 l/m 45,3 km/h (6 Bft) N-NW 330 0 min 0 W/m 4,2 C -4,2 C 45,3 km/h (6 Bft)
12.04.2011 17:26 8,3 C 75 % 1016,5 hPa 0,0 l/m 31,8 km/h (5 Bft) N-NW 330 0 min 0 W/m 4,1 C -2,1 C 31,8 km/h (5 Bft)
12.04.2011 17:31 8,4 C 76 % 1016,5 hPa 0,0 l/m 41,1 km/h (6 Bft) N-NW 335 0 min 0 W/m 4,4 C -3,6 C 41,1 km/h (6 Bft)
12.04.2011 17:36 8,4 C 75 % 1016,5 hPa 0,0 l/m 49,8 km/h (7 Bft) NW 320 0 min 0 W/m 4,2 C -4,7 C 49,8 km/h (7 Bft)
12.04.2011 17:41 8,4 C 77 % 1016,5 hPa 0,0 l/m 37,8 km/h (5 Bft) N-NW 330 0 min 0 W/m 4,6 C -3,1 C 37,8 km/h (5 Bft)
12.04.2011 17:46 8,4 C 77 % 1016,5 hPa 0,0 l/m 41,0 km/h (6 Bft) NW 320 0 min 0 W/m 4,6 C -3,6 C 41,0 km/h (6 Bft)
12.04.2011 17:51 8,4 C 76 % 1016,5 hPa 0,0 l/m 36,5 km/h (5 Bft) N-NW 335 0 min 0 W/m 4,4 C -2,9 C 36,5 km/h (5 Bft)
12.04.2011 17:56 8,4 C 74 % 1016,5 hPa 0,0 l/m 39,8 km/h (6 Bft) N-NW 345 0 min 0 W/m 4,0 C -3,4 C 39,8 km/h (6 Bft)
12.04.2011 18:01 8,4 C 74 % 1016,5 hPa 0,0 l/m 39,8 km/h (6 Bft) N-NW 345 0 min 0 W/m 4,0 C -3,4 C 39,8 km/h (6 Bft)
12.04.2011 18:06 8,4 C 76 % 1016,5 hPa 0,0 l/m 39,4 km/h (6 Bft) NW 315 0 min 0 W/m 4,4 C -3,4 C 39,4 km/h (6 Bft)
12.04.2011 18:11 8,3 C 76 % 1016,5 hPa 0,0 l/m 41,5 km/h (6 Bft) N-NW 330 0 min 0 W/m 4,3 C -3,9 C 41,5 km/h (6 Bft)
12.04.2011 18:16 8,2 C 77 % 1016,5 hPa 0,0 l/m 38,3 km/h (6 Bft) N 350 0 min 0 W/m 4,4 C -3,5 C 38,3 km/h (6 Bft)
12.04.2011 18:21 8,3 C 76 % 1016,5 hPa 0,0 l/m 47,4 km/h (6 Bft) N-NW 330 0 min 0 W/m 4,3 C -4,6 C 47,4 km/h (6 Bft)
12.04.2011 18:26 8,2 C 77 % 1016,5 hPa 0,0 l/m 35,8 km/h (5 Bft) NW 325 0 min 0 W/m 4,4 C -3,1 C 35,8 km/h (5 Bft)
12.04.2011 18:31 8,3 C 77 % 1016,5 hPa 0,0 l/m 43,1 km/h (6 Bft) N-NW 340 0 min 0 W/m 4,5 C -4,1 C 43,1 km/h (6 Bft)
12.04.2011 18:36 8,2 C 76 % 1016,5 hPa 0,0 l/m 43,1 km/h (6 Bft) N-NW 345 0 min 0 W/m 4,2 C -4,2 C 43,1 km/h (6 Bft)
12.04.2011 18:41 8,2 C 77 % 1016,5 hPa 0,0 l/m 41,2 km/h (6 Bft) N-NW 335 0 min 0 W/m 4,4 C -4,0 C 41,2 km/h (6 Bft)
12.04.2011 18:46 8,2 C 76 % 1016,5 hPa 0,0 l/m 36,5 km/h (5 Bft) NW 325 0 min 0 W/m 4,2 C -3,2 C 36,5 km/h (5 Bft)
12.04.2011 18:51 8,2 C 75 % 1016,5 hPa 0,0 l/m 40,1 km/h (6 Bft) NW 325 0 min 0 W/m 4,0 C -3,8 C 40,1 km/h (6 Bft)
12.04.2011 18:56 8,2 C 77 % 1016,5 hPa 0,0 l/m 41,4 km/h (6 Bft) NW 320 0 min 0 W/m 4,4 C -4,0 C 41,4 km/h (6 Bft)
12.04.2011 19:01 8,2 C 77 % 1016,5 hPa 0,0 l/m 42,3 km/h (6 Bft) NW 325 0 min 0 W/m 4,4 C -4,1 C 42,3 km/h (6 Bft)
12.04.2011 19:06 8,1 C 77 % 1016,5 hPa 0,0 l/m 41,7 km/h (6 Bft) N-NW 340 0 min 0 W/m 4,3 C -4,2 C 41,7 km/h (6 Bft)
12.04.2011 19:11 8,0 C 77 % 1016,5 hPa 0,0 l/m 41,4 km/h (6 Bft) N-NW 330 0 min 0 W/m 4,2 C -4,3 C 41,4 km/h (6 Bft)
12.04.2011 19:16 8,0 C 78 % 1016,5 hPa 0,0 l/m 40,5 km/h (6 Bft) N-NW 335 0 min 0 W/m 4,4 C -4,2 C 40,5 km/h (6 Bft)
12.04.2011 19:21 8,0 C 78 % 1016,5 hPa 0,0 l/m 42,7 km/h (6 Bft) N-NW 330 0 min 0 W/m 4,4 C -4,5 C 42,7 km/h (6 Bft)
12.04.2011 19:26 8,0 C 78 % 1016,5 hPa 0,0 l/m 42,9 km/h (6 Bft) N-NW 340 0 min 0 W/m 4,4 C -4,5 C 42,9 km/h (6 Bft)
12.04.2011 19:31 7,9 C 78 % 1016,5 hPa 0,0 l/m 52,9 km/h (7 Bft) N-NW 340 0 min 0 W/m 4,3 C -5,8 C 52,9 km/h (7 Bft)
12.04.2011 19:36 7,9 C 79 % 1017,5 hPa 0,0 l/m 43,5 km/h (6 Bft) N-NW 335 0 min 0 W/m 4,5 C -4,7 C 43,5 km/h (6 Bft)
12.04.2011 19:41 7,8 C 79 % 1017,5 hPa 0,0 l/m 37,6 km/h (5 Bft) N-NW 335 0 min 0 W/m 4,4 C -4,0 C 37,6 km/h (5 Bft)
12.04.2011 19:46 7,8 C 79 % 1016,5 hPa 0,0 l/m 40,9 km/h (6 Bft) N-NW 340 0 min 0 W/m 4,4 C -4,5 C 40,9 km/h (6 Bft)
12.04.2011 19:51 7,8 C 79 % 1016,5 hPa 0,0 l/m 43,8 km/h (6 Bft) N-NW 340 0 min 0 W/m 4,4 C -4,9 C 43,8 km/h (6 Bft)
12.04.2011 19:56 7,8 C 79 % 1016,5 hPa 0,0 l/m 32,9 km/h (5 Bft) N-NW 335 0 min 0 W/m 4,4 C -3,1 C 32,9 km/h (5 Bft)
12.04.2011 20:01 7,8 C 79 % 1016,5 hPa 0,0 l/m 38,8 km/h (6 Bft) N-NW 340 0 min 0 W/m 4,4 C -4,2 C 38,8 km/h (6 Bft)
12.04.2011 20:06 7,8 C 78 % 1016,5 hPa 0,0 l/m 42,3 km/h (6 Bft) NW 325 0 min 0 W/m 4,2 C -4,7 C 42,3 km/h (6 Bft)
12.04.2011 20:11 7,8 C 78 % 1016,5 hPa 0,0 l/m 42,2 km/h (6 Bft) N-NW 340 0 min 0 W/m 4,2 C -4,7 C 42,2 km/h (6 Bft)
12.04.2011 20:17 7,8 C 79 % 1016,5 hPa 0,0 l/m 42,2 km/h (6 Bft) N-NW 340 0 min 0 W/m 4,4 C -4,7 C 42,2 km/h (6 Bft)
12.04.2011 20:21 7,8 C 78 % 1016,5 hPa 0,0 l/m 44,5 km/h (6 Bft) N-NW 335 0 min 0 W/m 4,2 C -5,0 C 44,5 km/h (6 Bft)
12.04.2011 20:26 7,8 C 78 % 1016,5 hPa 0,0 l/m 40,3 km/h (6 Bft) N-NW 335 0 min 0 W/m 4,2 C -4,4 C 40,3 km/h (6 Bft)
12.04.2011 20:31 7,8 C 79 % 1016,5 hPa 0,0 l/m 39,2 km/h (6 Bft) N-NW 335 0 min 0 W/m 4,4 C -4,2 C 39,2 km/h (6 Bft)
12.04.2011 20:36 7,8 C 79 % 1016,5 hPa 0,0 l/m 34,6 km/h (5 Bft) NW 315 0 min 0 W/m 4,4 C -3,4 C 34,6 km/h (5 Bft)
12.04.2011 20:41 7,7 C 78 % 1016,5 hPa 0,0 l/m 42,1 km/h (6 Bft) N-NW 330 0 min 0 W/m 4,1 C -4,8 C 42,1 km/h (6 Bft)
12.04.2011 20:46 7,7 C 78 % 1016,5 hPa 0,0 l/m 47,5 km/h (6 Bft) NW 325 0 min 0 W/m 4,1 C -5,6 C 47,5 km/h (6 Bft)
12.04.2011 20:51 7,8 C 79 % 1016,5 hPa 0,0 l/m 44,0 km/h (6 Bft) N-NW 340 0 min 0 W/m 4,4 C -5,0 C 44,0 km/h (6 Bft)
12.04.2011 20:56 7,7 C 78 % 1016,5 hPa 0,0 l/m 35,6 km/h (5 Bft) N 350 0 min 0 W/m 4,1 C -3,8 C 35,6 km/h (5 Bft)
12.04.2011 21:01 7,7 C 79 % 1016,5 hPa 0,0 l/m 45,7 km/h (6 Bft) N 350 0 min 0 W/m 4,3 C -5,3 C 45,7 km/h (6 Bft)
12.04.2011 21:06 7,7 C 78 % 1016,5 hPa 0,0 l/m 35,1 km/h (5 Bft) N-NW 335 0 min 0 W/m 4,1 C -3,7 C 35,1 km/h (5 Bft)
12.04.2011 21:11 7,7 C 79 % 1016,5 hPa 0,0 l/m 40,0 km/h (6 Bft) NW 325 0 min 0 W/m 4,3 C -4,5 C 40,0 km/h (6 Bft)
12.04.2011 21:16 7,7 C 79 % 1016,5 hPa 0,0 l/m 42,8 km/h (6 Bft) NW 320 0 min 0 W/m 4,3 C -4,9 C 42,8 km/h (6 Bft)
12.04.2011 21:21 7,7 C 79 % 1016,5 hPa 0,0 l/m 41,2 km/h (6 Bft) NW 320 0 min 0 W/m 4,3 C -4,7 C 41,2 km/h (6 Bft)
12.04.2011 21:26 7,7 C 79 % 1016,5 hPa 0,0 l/m 36,2 km/h (5 Bft) N-NW 330 0 min 0 W/m 4,3 C -3,9 C 36,2 km/h (5 Bft)
12.04.2011 21:31 7,7 C 79 % 1016,5 hPa 0,0 l/m 37,8 km/h (5 Bft) NW 320 0 min 0 W/m 4,3 C -4,2 C 37,8 km/h (5 Bft)
12.04.2011 21:36 7,7 C 79 % 1016,5 hPa 0,0 l/m 42,9 km/h (6 Bft) N-NW 340 0 min 0 W/m 4,3 C -5,0 C 42,9 km/h (6 Bft)
12.04.2011 21:41 7,7 C 79 % 1016,5 hPa 0,0 l/m 42,9 km/h (6 Bft) N-NW 335 0 min 0 W/m 4,3 C -5,0 C 42,9 km/h (6 Bft)
12.04.2011 21:46 7,6 C 79 % 1016,5 hPa 0,0 l/m 40,7 km/h (6 Bft) N-NW 330 0 min 0 W/m 4,2 C -4,8 C 40,7 km/h (6 Bft)
12.04.2011 21:51 7,6 C 79 % 1016,5 hPa 0,0 l/m 38,4 km/h (6 Bft) N-NW 330 0 min 0 W/m 4,2 C -4,4 C 38,4 km/h (6 Bft)
12.04.2011 21:56 7,6 C 79 % 1016,5 hPa 0,0 l/m 42,5 km/h (6 Bft) N-NW 330 0 min 0 W/m 4,2 C -5,0 C 42,5 km/h (6 Bft)
12.04.2011 22:01 7,6 C 80 % 1016,5 hPa 0,0 l/m 34,6 km/h (5 Bft) NW 315 0 min 0 W/m 4,4 C -3,7 C 34,6 km/h (5 Bft)
12.04.2011 22:06 7,6 C 80 % 1016,5 hPa 0,0 l/m 36,0 km/h (5 Bft) NW 320 0 min 0 W/m 4,4 C -4,0 C 36,0 km/h (5 Bft)
12.04.2011 22:11 7,6 C 80 % 1016,5 hPa 0,0 l/m 36,4 km/h (5 Bft) NW 315 0 min 0 W/m 4,4 C -4,0 C 36,4 km/h (5 Bft)
12.04.2011 22:16 7,6 C 80 % 1016,5 hPa 0,0 l/m 40,0 km/h (6 Bft) N 355 0 min 0 W/m 4,4 C -4,7 C 40,0 km/h (6 Bft)
12.04.2011 22:21 7,6 C 80 % 1016,5 hPa 0,0 l/m 35,2 km/h (5 Bft) N-NW 335 0 min 0 W/m 4,4 C -3,8 C 35,2 km/h (5 Bft)
12.04.2011 22:26 7,6 C 80 % 1016,5 hPa 0,0 l/m 37,8 km/h (5 Bft) NW 325 0 min 0 W/m 4,4 C -4,3 C 37,8 km/h (5 Bft)
12.04.2011 22:31 7,6 C 80 % 1016,5 hPa 0,0 l/m 42,3 km/h (6 Bft) N-NW 330 0 min 0 W/m 4,4 C -5,0 C 42,3 km/h (6 Bft)
12.04.2011 22:36 7,6 C 80 % 1016,5 hPa 0,0 l/m 35,1 km/h (5 Bft) NW 320 0 min 0 W/m 4,4 C -3,8 C 35,1 km/h (5 Bft)
12.04.2011 22:41 7,6 C 81 % 1016,5 hPa 0,0 l/m 37,4 km/h (5 Bft) NW 315 0 min 0 W/m 4,6 C -4,2 C 37,4 km/h (5 Bft)
12.04.2011 22:46 7,6 C 81 % 1016,5 hPa 0,0 l/m 40,6 km/h (6 Bft) NW 325 0 min 0 W/m 4,6 C -4,8 C 40,6 km/h (6 Bft)
12.04.2011 22:51 7,6 C 81 % 1016,5 hPa 0,0 l/m 27,8 km/h (5 Bft) N-NW 340 0 min 0 W/m 4,6 C -2,2 C 27,8 km/h (5 Bft)
12.04.2011 22:56 7,6 C 81 % 1016,5 hPa 0,0 l/m 35,5 km/h (5 Bft) NW 320 0 min 0 W/m 4,6 C -3,9 C 35,5 km/h (5 Bft)
12.04.2011 23:01 7,6 C 81 % 1016,5 hPa 0,0 l/m 36,6 km/h (5 Bft) N-NW 330 0 min 0 W/m 4,6 C -4,1 C 36,6 km/h (5 Bft)
12.04.2011 23:06 7,6 C 81 % 1016,5 hPa 0,0 l/m 41,1 km/h (6 Bft) N-NW 340 0 min 0 W/m 4,6 C -4,8 C 41,1 km/h (6 Bft)
12.04.2011 23:11 7,6 C 81 % 1016,5 hPa 0,0 l/m 39,2 km/h (6 Bft) N-NW 335 0 min 0 W/m 4,6 C -4,5 C 39,2 km/h (6 Bft)
12.04.2011 23:16 7,6 C 82 % 1016,5 hPa 0,0 l/m 34,9 km/h (5 Bft) NW 320 0 min 0 W/m 4,7 C -3,8 C 34,9 km/h (5 Bft)
12.04.2011 23:21 7,6 C 81 % 1016,5 hPa 0,0 l/m 34,7 km/h (5 Bft) N-NW 335 0 min 0 W/m 4,6 C -3,7 C 34,7 km/h (5 Bft)
12.04.2011 23:26 7,6 C 80 % 1016,5 hPa 0,0 l/m 38,0 km/h (6 Bft) NW 325 0 min 0 W/m 4,4 C -4,3 C 38,0 km/h (6 Bft)
12.04.2011 23:31 7,6 C 81 % 1016,5 hPa 0,0 l/m 41,3 km/h (6 Bft) N-NW 340 0 min 0 W/m 4,6 C -4,9 C 41,3 km/h (6 Bft)
12.04.2011 23:36 7,6 C 80 % 1016,5 hPa 0,0 l/m 39,6 km/h (6 Bft) N-NW 330 0 min 0 W/m 4,4 C -4,6 C 39,6 km/h (6 Bft)
12.04.2011 23:41 7,6 C 81 % 1016,5 hPa 0,0 l/m 39,7 km/h (6 Bft) N-NW 330 0 min 0 W/m 4,6 C -4,6 C 39,7 km/h (6 Bft)
12.04.2011 23:46 7,6 C 81 % 1016,5 hPa 0,0 l/m 42,5 km/h (6 Bft) N-NW 330 0 min 0 W/m 4,6 C -5,0 C 42,5 km/h (6 Bft)
12.04.2011 23:51 7,6 C 81 % 1016,5 hPa 0,0 l/m 43,5 km/h (6 Bft) N-NW 345 0 min 0 W/m 4,6 C -5,2 C 43,5 km/h (6 Bft)
12.04.2011 23:56 7,6 C 81 % 1016,5 hPa 0,0 l/m 38,9 km/h (6 Bft) NW 325 0 min 0 W/m 4,6 C -4,5 C 38,9 km/h (6 Bft)
_ Min-Zeit 06:36 14:16 05:06 - 00:16 - - - - 14:16 06:41 00:16
Minimum _ 7,3 C 67 % 1008,5 hPa - 11,7 km/h (2 Bft) - - - - 3,7 C -6,6 C 11,7 km/h (2 Bft)
_ Max-Zeit 00:01 03:26 19:36 03:06 19:31 - - 00:01 00:01 02:56 00:16 19:31
Maximum _ 10,3 C 91 % 1017,5 hPa 0,3 l/m 52,9 km/h
N-NW (7 Bft)
- - 0 min 0 W/m 7,6 C 6,9 C 52,9 km/h
N-NW (7 Bft)
Durchschnitt _ 8,5 C 80 % 1013,8 hPa #3,9 l/m 37,3 km/h (5 Bft) N-NW - #0 min. 0 W/m 5,3 C -2,6 C 37,3 km/h (5 Bft)
copyright by Holger Just